Wetterdaten: Dienstag, 10.02.2015
Datum Zeit Temp. A. Feuchte A. Luftdruck Regen Wind Richtung Richtung Sonnenschein ET UV Solar Taupunkt Windchill Windben Empfang
10.02.2015 00:00 1,1 C 67 % 1027,3 hPa 0,0 l/m 0,7 km/h (0 Bft) W-SW 250 0 min 0,000 mm 0,0 UV-I 0 W/m -4,3 C 1,1 C 4,0 km/h (1 Bft) 0,00 %
10.02.2015 00:15 1,0 C 68 % 1027,1 hPa 0,0 l/m 5,8 km/h (2 Bft) W-SW 256 0 min 0,000 mm 0,0 UV-I 0 W/m -4,2 C 1,0 C 11,9 km/h (2 Bft) 0,00 %
10.02.2015 00:30 0,9 C 69 % 1027,3 hPa 0,0 l/m 8,3 km/h (2 Bft) W-SW 251 0 min 0,000 mm 0,0 UV-I 0 W/m -4,1 C -1,0 C 11,9 km/h (2 Bft) 0,00 %
10.02.2015 00:45 0,7 C 70 % 1027,2 hPa 0,0 l/m 0,0 km/h (0 Bft) SW 228 0 min 0,000 mm 0,0 UV-I 0 W/m -4,1 C 0,7 C 0,0 km/h (0 Bft) 0,00 %
10.02.2015 01:00 0,8 C 69 % 1027,2 hPa 0,0 l/m 2,9 km/h (1 Bft) NW 321 0 min 0,000 mm 0,0 UV-I 0 W/m -4,2 C 0,8 C 7,9 km/h (2 Bft) 0,00 %
10.02.2015 01:15 0,9 C 69 % 1027,1 hPa 0,0 l/m 1,4 km/h (1 Bft) S-SO 161 0 min 0,000 mm 0,0 UV-I 0 W/m -4,1 C 0,9 C 4,0 km/h (1 Bft) 0,00 %
10.02.2015 01:30 1,0 C 69 % 1027,1 hPa 0,0 l/m 0,0 km/h (0 Bft) W-SW 250 0 min 0,000 mm 0,0 UV-I 0 W/m -4,0 C 1,0 C 0,0 km/h (0 Bft) 0,00 %
10.02.2015 01:45 0,9 C 69 % 1027,2 hPa 0,0 l/m 0,4 km/h (0 Bft) SW 230 0 min 0,000 mm 0,0 UV-I 0 W/m -4,1 C 0,9 C 4,0 km/h (1 Bft) 0,00 %
10.02.2015 02:00 1,0 C 69 % 1027,3 hPa 0,0 l/m 4,7 km/h (1 Bft) W-SW 255 0 min 0,000 mm 0,0 UV-I 0 W/m -4,0 C 1,0 C 7,9 km/h (2 Bft) 0,00 %
10.02.2015 02:15 1,2 C 68 % 1027,1 hPa 0,0 l/m 1,4 km/h (1 Bft) W-NW 289 0 min 0,000 mm 0,0 UV-I 0 W/m -4,0 C 1,2 C 4,0 km/h (1 Bft) 0,00 %
10.02.2015 02:30 1,1 C 68 % 1027,1 hPa 0,0 l/m 0,7 km/h (0 Bft) W-SW 256 0 min 0,000 mm 0,0 UV-I 0 W/m -4,1 C 1,1 C 4,0 km/h (1 Bft) 0,00 %
10.02.2015 02:45 1,1 C 68 % 1026,9 hPa 0,0 l/m 5,8 km/h (2 Bft) W-SW 252 0 min 0,000 mm 0,0 UV-I 0 W/m -4,1 C 1,1 C 11,9 km/h (2 Bft) 0,00 %
10.02.2015 03:00 1,2 C 68 % 1027,0 hPa 0,0 l/m 1,8 km/h (1 Bft) W-SW 255 0 min 0,000 mm 0,0 UV-I 0 W/m -4,0 C 1,2 C 4,0 km/h (1 Bft) 0,00 %
10.02.2015 03:15 1,1 C 68 % 1027,2 hPa 0,0 l/m 3,2 km/h (1 Bft) W-SW 256 0 min 0,000 mm 0,0 UV-I 0 W/m -4,1 C 1,1 C 7,9 km/h (2 Bft) 0,00 %
10.02.2015 03:30 1,2 C 68 % 1027,1 hPa 0,0 l/m 9,7 km/h (2 Bft) W-SW 251 0 min 0,000 mm 0,0 UV-I 0 W/m -4,0 C -1,9 C 11,9 km/h (2 Bft) 0,00 %
10.02.2015 03:45 1,1 C 68 % 1027,0 hPa 0,0 l/m 5,4 km/h (1 Bft) S-SW 202 0 min 0,000 mm 0,0 UV-I 0 W/m -4,1 C 1,1 C 7,9 km/h (2 Bft) 0,00 %
10.02.2015 04:00 1,2 C 68 % 1027,3 hPa 0,0 l/m 9,4 km/h (2 Bft) W 268 0 min 0,000 mm 0,0 UV-I 0 W/m -4,0 C -1,6 C 11,9 km/h (2 Bft) 0,00 %
10.02.2015 04:15 1,1 C 69 % 1027,6 hPa 0,0 l/m 4,0 km/h (1 Bft) W-NW 303 0 min 0,000 mm 0,0 UV-I 0 W/m -3,9 C 1,1 C 11,9 km/h (2 Bft) 0,00 %
10.02.2015 04:30 1,1 C 69 % 1027,7 hPa 0,0 l/m 5,8 km/h (2 Bft) W-SW 247 0 min 0,000 mm 0,0 UV-I 0 W/m -3,9 C 1,1 C 7,9 km/h (2 Bft) 0,00 %
10.02.2015 04:45 1,2 C 69 % 1027,7 hPa 0,0 l/m 2,9 km/h (1 Bft) W-SW 255 0 min 0,000 mm 0,0 UV-I 0 W/m -3,8 C 1,2 C 4,0 km/h (1 Bft) 0,00 %
10.02.2015 05:00 1,2 C 69 % 1028,0 hPa 0,0 l/m 3,2 km/h (1 Bft) W-SW 255 0 min 0,000 mm 0,0 UV-I 0 W/m -3,8 C 1,2 C 4,0 km/h (1 Bft) 0,00 %
10.02.2015 05:15 1,1 C 69 % 1028,0 hPa 0,0 l/m 1,8 km/h (1 Bft) SW 235 0 min 0,000 mm 0,0 UV-I 0 W/m -3,9 C 1,1 C 4,0 km/h (1 Bft) 0,00 %
10.02.2015 05:30 0,9 C 71 % 1028,1 hPa 0,0 l/m 0,0 km/h (0 Bft) SW 214 0 min 0,000 mm 0,0 UV-I 0 W/m -3,7 C 0,9 C 0,0 km/h (0 Bft) 0,00 %
10.02.2015 05:45 0,9 C 70 % 1027,8 hPa 0,0 l/m 1,8 km/h (1 Bft) W-SW 250 0 min 0,000 mm 0,0 UV-I 0 W/m -3,9 C 0,9 C 4,0 km/h (1 Bft) 0,00 %
10.02.2015 06:00 1,0 C 70 % 1028,2 hPa 0,0 l/m 2,2 km/h (1 Bft) W-SW 252 0 min 0,000 mm 0,0 UV-I 0 W/m -3,8 C 1,0 C 7,9 km/h (2 Bft) 0,00 %
10.02.2015 06:15 1,1 C 70 % 1028,1 hPa 0,0 l/m 5,4 km/h (1 Bft) W-NW 294 0 min 0,000 mm 0,0 UV-I 0 W/m -3,7 C 1,1 C 11,9 km/h (2 Bft) 0,00 %
10.02.2015 06:30 1,1 C 70 % 1028,1 hPa 0,0 l/m 5,4 km/h (1 Bft) W-SW 254 0 min 0,000 mm 0,0 UV-I 0 W/m -3,7 C 1,1 C 7,9 km/h (2 Bft) 0,00 %
10.02.2015 06:45 1,1 C 71 % 1028,6 hPa 0,0 l/m 1,4 km/h (1 Bft) SW 227 0 min 0,000 mm 0,0 UV-I 0 W/m -3,6 C 1,1 C 4,0 km/h (1 Bft) 0,00 %
10.02.2015 07:00 1,1 C 72 % 1028,7 hPa 0,0 l/m 4,7 km/h (1 Bft) W-SW 250 0 min 0,000 mm 0,0 UV-I 0 W/m -3,4 C 1,1 C 7,9 km/h (2 Bft) 0,00 %
10.02.2015 07:15 1,1 C 72 % 1028,9 hPa 0,0 l/m 0,7 km/h (0 Bft) S 190 0 min 0,000 mm 0,0 UV-I 0 W/m -3,4 C 1,1 C 4,0 km/h (1 Bft) 0,00 %
10.02.2015 07:30 1,1 C 72 % 1028,9 hPa 0,0 l/m 2,9 km/h (1 Bft) S-SW 213 0 min 0,000 mm 0,0 UV-I 0 W/m -3,4 C 1,1 C 7,9 km/h (2 Bft) 0,00 %
10.02.2015 07:45 1,0 C 73 % 1029,2 hPa 0,0 l/m 0,0 km/h (0 Bft) S 181 0 min 0,000 mm 0,0 UV-I 3 W/m -3,3 C 1,0 C 0,0 km/h (0 Bft) 0,00 %
10.02.2015 08:00 1,0 C 73 % 1029,5 hPa 0,0 l/m 0,0 km/h (0 Bft) W-SW 254 0 min 0,000 mm 0,0 UV-I 10 W/m -3,3 C 1,0 C 0,0 km/h (0 Bft) 0,00 %
10.02.2015 08:15 1,1 C 73 % 1029,5 hPa 0,0 l/m 0,7 km/h (0 Bft) W-SW 254 0 min 0,000 mm 0,0 UV-I 22 W/m -3,2 C 1,1 C 4,0 km/h (1 Bft) 0,00 %
10.02.2015 08:30 1,2 C 72 % 1029,6 hPa 0,0 l/m 0,7 km/h (0 Bft) NW 321 0 min 0,000 mm 0,0 UV-I 33 W/m -3,3 C 1,2 C 4,0 km/h (1 Bft) 0,00 %
10.02.2015 08:45 1,4 C 70 % 1029,7 hPa 0,0 l/m 0,4 km/h (0 Bft) W-SW 251 0 min 0,000 mm 1,0 UV-I 48 W/m -3,5 C 1,4 C 4,0 km/h (1 Bft) 0,00 %
10.02.2015 09:00 1,6 C 70 % 1029,8 hPa 0,0 l/m 0,7 km/h (0 Bft) W 271 0 min 0,000 mm 1,0 UV-I 65 W/m -3,3 C 1,6 C 4,0 km/h (1 Bft) 0,00 %
10.02.2015 09:15 1,7 C 69 % 1029,5 hPa 0,0 l/m 0,4 km/h (0 Bft) SW 228 0 min 0,000 mm 1,0 UV-I 79 W/m -3,4 C 1,7 C 4,0 km/h (1 Bft) 0,00 %
10.02.2015 09:30 2,0 C 68 % 1029,4 hPa 0,0 l/m 0,0 km/h (0 Bft) O-SO 113 0 min 0,000 mm 1,0 UV-I 105 W/m -3,3 C 2,0 C 0,0 km/h (0 Bft) 0,00 %
10.02.2015 09:45 2,3 C 66 % 1029,1 hPa 0,0 l/m 0,0 km/h (0 Bft) W-NW 291 0 min 0,000 mm 1,0 UV-I 147 W/m -3,4 C 2,3 C 0,0 km/h (0 Bft) 0,00 %
10.02.2015 10:00 2,4 C 69 % 1029,4 hPa 0,0 l/m 0,4 km/h (0 Bft) W 260 0 min 0,000 mm 2,0 UV-I 154 W/m -2,7 C 2,4 C 4,0 km/h (1 Bft) 0,00 %
10.02.2015 10:15 2,6 C 68 % 1029,8 hPa 0,0 l/m 0,0 km/h (0 Bft) O-SO 102 0 min 0,000 mm 1,0 UV-I 157 W/m -2,7 C 2,6 C 0,0 km/h (0 Bft) 0,00 %
10.02.2015 10:30 2,6 C 67 % 1029,2 hPa 0,0 l/m 1,8 km/h (1 Bft) W-SW 251 0 min 0,000 mm 2,0 UV-I 142 W/m -2,9 C 2,6 C 4,0 km/h (1 Bft) 0,00 %
10.02.2015 10:45 2,9 C 66 % 1029,1 hPa 0,0 l/m 6,5 km/h (2 Bft) W-SW 253 0 min 0,000 mm 2,0 UV-I 198 W/m -2,8 C 2,8 C 11,9 km/h (2 Bft) 0,00 %
10.02.2015 11:00 3,3 C 64 % 1029,0 hPa 0,0 l/m 1,8 km/h (1 Bft) W-SW 253 15 min 0,000 mm 3,0 UV-I 240 W/m -2,8 C 3,3 C 4,0 km/h (1 Bft) 0,00 %
10.02.2015 11:15 3,4 C 64 % 1028,8 hPa 0,0 l/m 0,0 km/h (0 Bft) SW 224 15 min 0,000 mm 3,0 UV-I 245 W/m -2,7 C 3,4 C 0,0 km/h (0 Bft) 0,00 %
10.02.2015 11:30 4,1 C 62 % 1028,6 hPa 0,0 l/m 3,2 km/h (1 Bft) NW 311 15 min 0,000 mm 2,0 UV-I 272 W/m -2,5 C 4,1 C 7,9 km/h (2 Bft) 0,00 %
10.02.2015 11:45 4,6 C 60 % 1028,4 hPa 0,0 l/m 4,7 km/h (1 Bft) W-SW 254 0 min 0,000 mm 3,0 UV-I 238 W/m -2,5 C 4,6 C 7,9 km/h (2 Bft) 0,00 %
10.02.2015 12:00 5,3 C 59 % 1028,5 hPa 0,0 l/m 4,3 km/h (1 Bft) W-SW 255 15 min 0,000 mm 3,0 UV-I 333 W/m -2,0 C 5,3 C 7,9 km/h (2 Bft) 0,00 %
10.02.2015 12:15 5,6 C 57 % 1028,3 hPa 0,0 l/m 0,0 km/h (0 Bft) S-SW 198 15 min 0,000 mm 3,0 UV-I 339 W/m -2,2 C 5,6 C 0,0 km/h (0 Bft) 0,00 %
10.02.2015 12:30 5,2 C 60 % 1028,1 hPa 0,0 l/m 2,9 km/h (1 Bft) W 271 0 min 0,000 mm 2,0 UV-I 237 W/m -1,9 C 5,2 C 4,0 km/h (1 Bft) 0,00 %
10.02.2015 12:45 4,7 C 60 % 1028,3 hPa 0,0 l/m 0,7 km/h (0 Bft) W-SW 252 0 min 0,000 mm 2,0 UV-I 146 W/m -2,4 C 4,7 C 4,0 km/h (1 Bft) 0,00 %
10.02.2015 13:00 4,7 C 62 % 1028,2 hPa 0,0 l/m 1,4 km/h (1 Bft) SW 227 0 min 0,000 mm 2,0 UV-I 174 W/m -1,9 C 4,7 C 4,0 km/h (1 Bft) 0,00 %
10.02.2015 13:15 4,4 C 61 % 1028,5 hPa 0,0 l/m 0,0 km/h (0 Bft) O-SO 117 0 min 0,000 mm 2,0 UV-I 115 W/m -2,4 C 4,4 C 0,0 km/h (0 Bft) 0,00 %
10.02.2015 13:30 4,4 C 61 % 1028,3 hPa 0,0 l/m 0,0 km/h (0 Bft) S-SW 196 0 min 0,000 mm 2,0 UV-I 120 W/m -2,4 C 4,4 C 0,0 km/h (0 Bft) 0,00 %
10.02.2015 13:45 5,7 C 57 % 1028,4 hPa 0,0 l/m 0,4 km/h (0 Bft) W-SW 251 15 min 0,000 mm 2,0 UV-I 236 W/m -2,1 C 5,7 C 4,0 km/h (1 Bft) 0,00 %
10.02.2015 14:00 5,3 C 59 % 1028,5 hPa 0,0 l/m 0,0 km/h (0 Bft) SW 220 0 min 0,000 mm 2,0 UV-I 222 W/m -2,0 C 5,3 C 0,0 km/h (0 Bft) 0,00 %
10.02.2015 14:15 4,9 C 60 % 1028,5 hPa 0,0 l/m 4,0 km/h (1 Bft) W 265 0 min 0,000 mm 2,0 UV-I 205 W/m -2,2 C 4,9 C 7,9 km/h (2 Bft) 0,00 %
10.02.2015 14:30 4,7 C 60 % 1028,2 hPa 0,0 l/m 2,9 km/h (1 Bft) W-SW 255 0 min 0,000 mm 2,0 UV-I 195 W/m -2,4 C 4,7 C 4,0 km/h (1 Bft) 0,00 %
10.02.2015 14:45 4,5 C 62 % 1028,8 hPa 0,0 l/m 5,8 km/h (2 Bft) W-NW 295 0 min 0,000 mm 1,0 UV-I 171 W/m -2,1 C 4,5 C 7,9 km/h (2 Bft) 0,00 %
10.02.2015 15:00 3,6 C 63 % 1028,6 hPa 0,0 l/m 0,4 km/h (0 Bft) S-SW 207 0 min 0,000 mm 1,0 UV-I 104 W/m -2,8 C 3,6 C 4,0 km/h (1 Bft) 0,00 %
10.02.2015 15:15 3,8 C 63 % 1028,7 hPa 0,0 l/m 2,9 km/h (1 Bft) SW 235 0 min 0,000 mm 1,0 UV-I 89 W/m -2,6 C 3,8 C 4,0 km/h (1 Bft) 0,00 %
10.02.2015 15:30 4,6 C 61 % 1028,4 hPa 0,0 l/m 0,4 km/h (0 Bft) W-SW 253 15 min 0,000 mm 1,0 UV-I 196 W/m -2,3 C 4,6 C 4,0 km/h (1 Bft) 0,00 %
10.02.2015 15:45 4,1 C 63 % 1028,7 hPa 0,0 l/m 0,0 km/h (0 Bft) S-SW 211 0 min 0,000 mm 1,0 UV-I 71 W/m -2,3 C 4,1 C 0,0 km/h (0 Bft) 0,00 %
10.02.2015 16:00 3,4 C 66 % 1028,9 hPa 0,0 l/m 0,0 km/h (0 Bft) W-SW 238 0 min 0,000 mm 1,0 UV-I 57 W/m -2,3 C 3,4 C 0,0 km/h (0 Bft) 0,00 %
10.02.2015 16:15 2,9 C 70 % 1029,1 hPa 0,0 l/m 0,0 km/h (0 Bft) SW 232 0 min 0,000 mm 1,0 UV-I 35 W/m -2,0 C 2,9 C 0,0 km/h (0 Bft) 0,00 %
10.02.2015 16:30 2,5 C 71 % 1029,2 hPa 0,0 l/m 1,8 km/h (1 Bft) W-SW 251 0 min 0,000 mm 0,0 UV-I 28 W/m -2,2 C 2,5 C 4,0 km/h (1 Bft) 0,00 %
10.02.2015 16:45 2,5 C 71 % 1029,1 hPa 0,0 l/m 0,0 km/h (0 Bft) SW 230 0 min 0,000 mm 0,0 UV-I 11 W/m -2,2 C 2,5 C 0,0 km/h (0 Bft) 0,00 %
10.02.2015 17:00 2,3 C 68 % 1029,4 hPa 0,0 l/m 0,0 km/h (0 Bft) W-SW 254 0 min 0,000 mm 0,0 UV-I 0 W/m -3,0 C 2,3 C 0,0 km/h (0 Bft) 0,00 %
10.02.2015 17:15 1,9 C 69 % 1029,6 hPa 0,0 l/m 0,0 km/h (0 Bft) SW 232 0 min 0,000 mm 0,0 UV-I 0 W/m -3,2 C 1,9 C 0,0 km/h (0 Bft) 0,00 %
10.02.2015 17:30 1,5 C 71 % 1030,0 hPa 0,0 l/m 0,0 km/h (0 Bft) SW 232 0 min 0,000 mm 0,0 UV-I 0 W/m -3,2 C 1,5 C 0,0 km/h (0 Bft) 0,00 %
10.02.2015 17:45 1,3 C 73 % 1030,1 hPa 0,0 l/m 0,0 km/h (0 Bft) W-SW 252 0 min 0,000 mm 0,0 UV-I 0 W/m -3,0 C 1,3 C 0,0 km/h (0 Bft) 0,00 %
10.02.2015 18:00 1,3 C 72 % 1030,2 hPa 0,0 l/m 0,4 km/h (0 Bft) W-SW 251 0 min 0,000 mm 0,0 UV-I 0 W/m -3,2 C 1,3 C 4,0 km/h (1 Bft) 0,00 %
10.02.2015 18:15 1,3 C 72 % 1030,3 hPa 0,0 l/m 0,4 km/h (0 Bft) W-SW 254 0 min 0,000 mm 0,0 UV-I 0 W/m -3,2 C 1,3 C 4,0 km/h (1 Bft) 0,00 %
10.02.2015 18:30 1,3 C 72 % 1030,2 hPa 0,0 l/m 0,4 km/h (0 Bft) W-SW 255 0 min 0,000 mm 0,0 UV-I 0 W/m -3,2 C 1,3 C 4,0 km/h (1 Bft) 0,00 %
10.02.2015 18:45 1,2 C 72 % 1030,3 hPa 0,0 l/m 0,0 km/h (0 Bft) SW 227 0 min 0,000 mm 0,0 UV-I 0 W/m -3,3 C 1,2 C 0,0 km/h (0 Bft) 0,00 %
10.02.2015 19:00 1,0 C 73 % 1030,6 hPa 0,0 l/m 0,0 km/h (0 Bft) W-SW 250 0 min 0,000 mm 0,0 UV-I 0 W/m -3,3 C 1,0 C 0,0 km/h (0 Bft) 0,00 %
10.02.2015 19:15 0,8 C 73 % 1030,3 hPa 0,0 l/m 0,0 km/h (0 Bft) W-SW 255 0 min 0,000 mm 0,0 UV-I 0 W/m -3,5 C 0,8 C 0,0 km/h (0 Bft) 0,00 %
10.02.2015 19:30 0,4 C 76 % 1030,5 hPa 0,0 l/m 0,0 km/h (0 Bft) W-SW 251 0 min 0,000 mm 0,0 UV-I 0 W/m -3,3 C 0,4 C 0,0 km/h (0 Bft) 0,00 %
10.02.2015 19:45 0,1 C 77 % 1030,7 hPa 0,0 l/m 0,0 km/h (0 Bft) S 175 0 min 0,000 mm 0,0 UV-I 0 W/m -3,4 C 0,1 C 0,0 km/h (0 Bft) 0,00 %
10.02.2015 20:00 -0,1 C 78 % 1030,9 hPa 0,0 l/m 0,0 km/h (0 Bft) S 184 0 min 0,000 mm 0,0 UV-I 0 W/m -3,5 C -0,1 C 0,0 km/h (0 Bft) 0,00 %
10.02.2015 20:15 -0,3 C 80 % 1031,0 hPa 0,0 l/m 0,0 km/h (0 Bft) SW 216 0 min 0,000 mm 0,0 UV-I 0 W/m -3,3 C -0,3 C 0,0 km/h (0 Bft) 0,00 %
10.02.2015 20:30 -0,5 C 80 % 1031,1 hPa 0,0 l/m 0,0 km/h (0 Bft) S-SW 196 0 min 0,000 mm 0,0 UV-I 0 W/m -3,5 C -0,5 C 0,0 km/h (0 Bft) 0,00 %
10.02.2015 20:45 -0,6 C 81 % 1030,9 hPa 0,0 l/m 0,0 km/h (0 Bft) S 174 0 min 0,000 mm 0,0 UV-I 0 W/m -3,4 C -0,6 C 0,0 km/h (0 Bft) 0,00 %
10.02.2015 21:00 -1,0 C 81 % 1031,0 hPa 0,0 l/m 0,0 km/h (0 Bft) S 185 0 min 0,000 mm 0,0 UV-I 0 W/m -3,8 C -1,0 C 0,0 km/h (0 Bft) 0,00 %
10.02.2015 21:15 -1,1 C 81 % 1031,2 hPa 0,0 l/m 0,0 km/h (0 Bft) S-SW 200 0 min 0,000 mm 0,0 UV-I 0 W/m -3,9 C -1,1 C 0,0 km/h (0 Bft) 0,00 %
10.02.2015 21:30 -1,1 C 82 % 1031,1 hPa 0,0 l/m 0,0 km/h (0 Bft) S-SW 200 0 min 0,000 mm 0,0 UV-I 0 W/m -3,8 C -1,1 C 0,0 km/h (0 Bft) 0,00 %
10.02.2015 21:45 -1,3 C 82 % 1030,8 hPa 0,0 l/m 0,0 km/h (0 Bft) S-SW 198 0 min 0,000 mm 0,0 UV-I 0 W/m -4,0 C -1,3 C 0,0 km/h (0 Bft) 0,00 %
10.02.2015 22:00 -1,3 C 82 % 1031,0 hPa 0,0 l/m 0,0 km/h (0 Bft) SW 216 0 min 0,000 mm 0,0 UV-I 0 W/m -4,0 C -1,3 C 0,0 km/h (0 Bft) 0,00 %
10.02.2015 22:15 -1,5 C 83 % 1031,1 hPa 0,0 l/m 0,0 km/h (0 Bft) S-SW 194 0 min 0,000 mm 0,0 UV-I 0 W/m -4,0 C -1,5 C 0,0 km/h (0 Bft) 0,00 %
10.02.2015 22:30 -1,6 C 83 % 1031,0 hPa 0,0 l/m 0,0 km/h (0 Bft) S-SW 198 0 min 0,000 mm 0,0 UV-I 0 W/m -4,1 C -1,6 C 0,0 km/h (0 Bft) 0,00 %
10.02.2015 22:45 -1,9 C 83 % 1030,9 hPa 0,0 l/m 0,0 km/h (0 Bft) S-SW 205 0 min 0,000 mm 0,0 UV-I 0 W/m -4,4 C -1,9 C 0,0 km/h (0 Bft) 0,00 %
10.02.2015 23:00 -1,8 C 83 % 1031,0 hPa 0,0 l/m 0,0 km/h (0 Bft) S-SW 207 0 min 0,000 mm 0,0 UV-I 0 W/m -4,3 C -1,8 C 0,0 km/h (0 Bft) 0,00 %
10.02.2015 23:15 -1,9 C 83 % 1031,0 hPa 0,0 l/m 0,0 km/h (0 Bft) S-SW 206 0 min 0,000 mm 0,0 UV-I 0 W/m -4,4 C -1,9 C 0,0 km/h (0 Bft) 0,00 %
10.02.2015 23:30 -2,0 C 84 % 1031,0 hPa 0,0 l/m 0,0 km/h (0 Bft) S-SW 197 0 min 0,000 mm 0,0 UV-I 0 W/m -4,3 C -2,0 C 0,0 km/h (0 Bft) 0,00 %
10.02.2015 23:45 -2,0 C 84 % 1031,0 hPa 0,0 l/m 0,0 km/h (0 Bft) S-SW 207 0 min 0,000 mm 0,0 UV-I 0 W/m -4,3 C -2,0 C 0,0 km/h (0 Bft) 0,00 %
_ Min-Zeit 23:30 12:15 02:45 - 00:45 - - - - - - 22:45 23:30 00:45 00:00
Minimum _ -2,0 C 57 % 1026,9 hPa - 0,0 km/h (0 Bft) - - - - - - -4,4 C -2,0 C 0,0 km/h (0 Bft) 0,00 %
_ Max-Zeit 13:45 23:30 21:15 00:00 03:30 - - 11:00 00:00 11:00 12:15 12:30 13:45 00:15 00:00
Maximum _ 5,7 C 84 % 1031,2 hPa 0,0 l/m 9,7 km/h
W-SW (2 Bft)
- - 15 min 0,000 mm 3,0 UV-I 339 W/m -1,9 C 5,7 C 11,9 km/h
W-SW (2 Bft)
0,00 %
Durchschnitt _ 1,6 C 70 % 1029,0 hPa #0,0 l/m 1,6 km/h (1 Bft) W-SW - #1:45 h #0,000 mm 1,7 UV-I 142 W/m -3,3 C 1,5 C 3,5 km/h (1 Bft) 0,00 %